Imperial, CA

7:01 PM PST on February 26, 2017 (GMT -0800)
Imperial County

Weather History for KIPL - August, 2013

Change the Weather History Date:

Sunday, August 18, 2013

  Actual Average Record
Temperature  
Mean Temperature 96 °F -  
Max Temperature 109 °F 103 °F 115 °F (2015)
Min Temperature 84 °F 75 °F 64 °F (1976)
Cooling Degree Days 32    
Growing Degree Days 46 (Base 50)    
Moisture  
Dew Point 59 °F    
Average Humidity 27    
Maximum Humidity 44    
Minimum Humidity 17    
Precipitation  
Precipitation 0.00 in - - ()
Sea Level Pressure  
Sea Level Pressure 29.72 in    
Wind  
Wind Speed 9 mph (ESE)    
Max Wind Speed 17 mph    
Max Gust Speed 24 mph    
Visibility 10 miles    
Events      
Averages and records for this station are not official NWS values.
T = Trace of Precipitation, MM = Missing Value Source: NWS Daily Summary

Daily Weather History Graph

Daily Weather History Graph

Search for Another Location

Airport or City:

Trip Planner

Search our weather history database for the weather conditions in past years. The results will help you decide how hot, cold, wet, or windy it might be!

Date:

Astronomy

Aug. 18, 2013 Rise Set
Actual Time 6:07 AM PDT 7:23 PM PDT
Civil Twilight 5:42 AM PDT 7:49 PM PDT
Nautical Twilight 5:11 AM PDT 8:20 PM PDT
Astronomical Twilight 4:39 AM PDT 8:52 PM PDT
Moon 5:30 PM PDT (8/18) 3:26 AM PDT (8/18)
Length of Visible Light 14h 07m
Length of Day
13h 15m
Waxing Gibbous, 93% of the Moon is Illuminated
Aug 18
Waxing Gibbous
Aug 20
Full
Aug 28
Last Quarter
Sep 5
New
Sep 12
First Quarter

Hourly Weather History & Observations

Time (PDT) Temp. Heat Index Dew Point Humidity Pressure Visibility Wind Dir Wind Speed Gust Speed Precip Events Conditions
12:53 AM 93.0 °F 92.3 °F 59.0 °F 32% 29.70 in 10.0 mi ESE 9.2 mph - N/A   Clear
1:53 AM 95.0 °F 93.7 °F 57.0 °F 28% 29.72 in 10.0 mi ESE 12.7 mph - N/A   Clear
2:53 AM 93.9 °F 92.9 °F 57.9 °F 30% 29.71 in 10.0 mi ESE 10.4 mph - N/A   Clear
3:53 AM 91.9 °F 90.8 °F 57.9 °F 32% 29.72 in 10.0 mi South 5.8 mph - N/A   Clear
4:53 AM 91.0 °F 90.2 °F 59.0 °F 34% 29.73 in 10.0 mi SSE 6.9 mph - N/A   Clear
5:53 AM 84.9 °F 85.0 °F 61.0 °F 44% 29.74 in 10.0 mi Calm Calm - N/A   Clear
6:53 AM 90.0 °F 89.7 °F 60.1 °F 37% 29.76 in 9.0 mi East 5.8 mph - N/A   Clear
7:53 AM 93.0 °F 93.0 °F 61.0 °F 34% 29.78 in 10.0 mi East 4.6 mph - N/A   Clear
8:53 AM 93.9 °F 95.2 °F 63.0 °F 36% 29.78 in 10.0 mi ENE 6.9 mph - N/A   Clear
9:53 AM 97.0 °F 97.4 °F 61.0 °F 30% 29.78 in 10.0 mi East 4.6 mph - N/A   Clear
10:53 AM 102.0 °F 102.2 °F 59.0 °F 24% 29.78 in 10.0 mi ENE 5.8 mph - N/A   Clear
11:53 AM 104.0 °F 104.0 °F 57.9 °F 22% 29.77 in 10.0 mi Calm Calm - N/A   Clear
12:53 PM 109.0 °F 110.5 °F 59.0 °F 20% 29.74 in 10.0 mi East 10.4 mph 16.1 mph N/A   Clear
1:53 PM 109.0 °F 111.3 °F 61.0 °F 21% 29.72 in 10.0 mi SE 13.8 mph 24.2 mph N/A   Clear
2:53 PM 109.0 °F 110.5 °F 60.1 °F 20% 29.69 in 10.0 mi ESE 17.3 mph 21.9 mph N/A   Clear
3:53 PM 107.1 °F 107.4 °F 57.9 °F 20% 29.67 in 10.0 mi SE 12.7 mph - N/A   Clear
4:53 PM 108.0 °F 108.0 °F 57.0 °F 19% 29.65 in 10.0 mi SE 11.5 mph - N/A   Clear
5:53 PM 109.0 °F 108.1 °F 55.9 °F 17% 29.64 in 10.0 mi East 11.5 mph - N/A   Clear
6:53 PM 107.1 °F 106.0 °F 55.0 °F 18% 29.64 in 10.0 mi SE 15.0 mph - N/A   Clear
7:53 PM 102.0 °F 101.6 °F 57.9 °F 23% 29.66 in 10.0 mi SE 12.7 mph - N/A   Clear
8:53 PM 100.0 °F 100.7 °F 60.1 °F 27% 29.70 in 10.0 mi SE 10.4 mph - N/A   Clear
9:53 PM 95.0 °F 94.4 °F 59.0 °F 30% 29.72 in 10.0 mi WSW 9.2 mph - N/A   Clear
10:53 PM 97.0 °F 95.7 °F 57.0 °F 26% 29.73 in 10.0 mi SE 5.8 mph - N/A   Clear
11:53 PM 93.9 °F 93.2 °F 59.0 °F 31% 29.74 in 10.0 mi SE 6.9 mph - N/A   Clear